Minneapolis Flying Cloud, MN

2:57 PM CST on December 11, 2019 (GMT -0600)
Flying Cloud

Weather History for KFCM - September, 2019

Change the Weather History Date:

Thursday, September 12, 2019

  Actual Average Record
Temperature  
Mean Temperature 62 °F -  
Max Temperature 66 °F 74 °F 91 °F (1998)
Min Temperature 57 °F 53 °F 39 °F (2007)
Degree Days  
Heating Degree Days 4    
Growing Degree Days 12 (Base 50)    
Moisture  
Dew Point 58 °F    
Average Humidity 91    
Maximum Humidity 94    
Minimum Humidity 84    
Precipitation  
Precipitation 1.28 in - - ()
Sea Level Pressure  
Sea Level Pressure 29.93 in    
Wind  
Wind Speed 13 mph (East)    
Max Wind Speed 22 mph    
Max Gust Speed 32 mph    
Visibility 6 miles    
Events Rain , Thunderstorm    
Averages and records for this station are not official NWS values.
T = Trace of Precipitation, MM = Missing Value Source: NWS Daily Summary

Daily Weather History Graph

Daily Weather History Graph

Search for Another Location

Airport or City:

Astronomy

Sep. 12, 2019 Rise Set
Actual Time 6:48 AM CDT 7:30 PM CDT
Civil Twilight 6:19 AM CDT 8:00 PM CDT
Nautical Twilight 5:44 AM CDT 8:35 PM CDT
Astronomical Twilight 5:07 AM CDT 9:11 PM CDT
Moon 7:20 PM CDT (9/12) 5:02 AM CDT (9/12)
Length of Visible Light 13h 40m
Length of Day
12h 41m
Waxing Gibbous, 98% of the Moon is Illuminated
Sep 12
Waxing Gibbous
Sep 13
Full
Sep 21
Last Quarter
Sep 28
New
Oct 5
First Quarter

Hourly Weather History & Observations

Time (CDT) Temp. Dew Point Humidity Pressure Visibility Wind Dir Wind Speed Gust Speed Precip Events Conditions
1:53 AM 57.9 °F 55.0 °F 90% 30.05 in 9.0 mi East 12.7 mph - N/A   Overcast
2:53 AM 59.0 °F 55.0 °F 87% 30.08 in 10.0 mi East 12.7 mph - 0.01 in Rain Light Rain
3:10 AM 59.0 °F 55.0 °F 87% 30.07 in 9.0 mi ENE 12.7 mph - 0.01 in Rain , Thunderstorm Light Rain
3:25 AM 59.0 °F 55.9 °F 90% 30.06 in 5.0 mi ENE 12.7 mph - 0.05 in Rain Rain
3:38 AM 57.9 °F 55.9 °F 93% 30.06 in 3.0 mi ENE 9.2 mph - 0.10 in Rain , Thunderstorm Thunderstorms and Rain
3:53 AM 57.9 °F 55.9 °F 93% 30.04 in 5.0 mi ENE 13.8 mph - 0.14 in Rain , Thunderstorm Thunderstorms and Rain
4:04 AM 57.9 °F 55.9 °F 93% 30.02 in 5.0 mi ENE 13.8 mph - 0.03 in Rain , Thunderstorm Rain
4:16 AM 57.9 °F 55.9 °F 93% 30.00 in 3.0 mi ENE 15.0 mph 23.0 mph 0.08 in Rain , Thunderstorm Heavy Rain
4:19 AM 57.9 °F 55.9 °F 93% 30.00 in 2.5 mi ENE 13.8 mph 23.0 mph 0.10 in Rain Heavy Rain
4:27 AM 57.9 °F 55.9 °F 93% 30.00 in 3.0 mi East 15.0 mph 26.5 mph 0.12 in Rain Rain
4:53 AM 57.9 °F 55.9 °F 93% 30.03 in 10.0 mi East 11.5 mph 21.9 mph 0.14 in Rain Light Rain
5:22 AM 57.9 °F 55.9 °F 93% 30.01 in 4.0 mi East 12.7 mph 21.9 mph 0.09 in Rain Rain
5:32 AM 57.9 °F 55.9 °F 93% 30.01 in 2.0 mi East 13.8 mph 23.0 mph 0.18 in Rain Rain
5:41 AM 57.9 °F 55.9 °F 93% 29.99 in 8.0 mi East 16.1 mph - 0.18 in Rain Light Rain
5:53 AM 57.9 °F 55.9 °F 93% 29.98 in 8.0 mi East 15.0 mph 28.8 mph 0.19 in Rain Light Rain
6:02 AM 57.9 °F 55.9 °F 93% 29.99 in 5.0 mi East 19.6 mph 26.5 mph 0.03 in Rain Light Rain
6:12 AM 57.9 °F 55.9 °F 93% 29.99 in 6.0 mi East 16.1 mph 28.8 mph 0.05 in Rain , Thunderstorm Light Thunderstorms and Rain
6:28 AM 59.0 °F 55.9 °F 90% 29.97 in 10.0 mi East 16.1 mph 31.1 mph 0.05 in Rain , Thunderstorm Light Rain
6:38 AM 59.0 °F 55.9 °F 90% 30.00 in 10.0 mi ESE 17.3 mph - 0.06 in Rain Light Rain
6:45 AM 59.0 °F 55.9 °F 90% 30.00 in 5.0 mi East 12.7 mph 24.2 mph 0.10 in Rain , Thunderstorm Heavy Thunderstorms and Rain
6:53 AM 59.0 °F 55.9 °F 90% 30.00 in 3.0 mi East 10.4 mph 19.6 mph 0.13 in Rain , Thunderstorm Thunderstorms and Rain
7:01 AM 59.0 °F 55.9 °F 90% 30.00 in 5.0 mi East 10.4 mph - 0.02 in Rain , Thunderstorm Rain
7:08 AM 59.0 °F 57.0 °F 93% 30.03 in 2.0 mi Calm Calm - 0.09 in Rain , Thunderstorm Heavy Thunderstorms and Rain
7:18 AM 59.0 °F 55.9 °F 90% 30.00 in 1.0 mi East 8.1 mph 19.6 mph 0.30 in Rain , Thunderstorm Heavy Thunderstorms and Rain
7:26 AM 59.0 °F 55.9 °F 90% 29.98 in 3.0 mi East 16.1 mph 23.0 mph 0.33 in Rain , Thunderstorm Thunderstorms and Rain
7:35 AM 59.0 °F 55.9 °F 90% 29.96 in 4.0 mi East 15.0 mph - 0.36 in Rain , Thunderstorm Rain
7:53 AM 59.0 °F 55.9 °F 90% 29.95 in 5.0 mi East 18.4 mph 25.3 mph 0.39 in Rain Light Rain
7:55 AM 59.0 °F 55.9 °F 90% 29.95 in 5.0 mi East 19.6 mph 25.3 mph 0.00 in Rain Light Rain
8:03 AM 59.0 °F 55.9 °F 90% 29.95 in 3.0 mi East 19.6 mph 29.9 mph 0.03 in Rain Rain
8:29 AM 59.0 °F 57.0 °F 93% 29.92 in 6.0 mi East 21.9 mph 29.9 mph 0.07 in Rain Light Rain
8:53 AM 60.1 °F 57.0 °F 90% 29.88 in 7.0 mi East 21.9 mph 32.2 mph 0.11 in Rain Light Rain
9:14 AM 60.1 °F 57.0 °F 90% 29.88 in 10.0 mi East 16.1 mph 25.3 mph 0.00 in Rain Light Rain
9:46 AM 60.1 °F 57.0 °F 90% 29.87 in 10.0 mi East 17.3 mph 29.9 mph 0.00 in Rain Light Rain
9:53 AM 60.1 °F 57.0 °F 90% 29.87 in 10.0 mi East 16.1 mph 27.6 mph 0.00 in Rain Light Rain
10:26 AM 62.1 °F 57.9 °F 86% 29.90 in 10.0 mi ESE 16.1 mph - 0.00 in   Mostly Cloudy
10:53 AM 63.0 °F 59.0 °F 87% 29.91 in 10.0 mi ESE 16.1 mph 28.8 mph 0.00 in   Overcast
11:53 AM 64.0 °F 59.0 °F 84% 29.91 in 10.0 mi ESE 17.3 mph 28.8 mph N/A   Overcast
12:43 PM 63.0 °F 59.0 °F 87% 29.90 in 10.0 mi ESE 17.3 mph 26.5 mph N/A   Overcast
12:53 PM 63.0 °F 59.0 °F 87% 29.90 in 10.0 mi ESE 18.4 mph 25.3 mph N/A   Overcast
1:35 PM 63.0 °F 60.1 °F 90% 29.89 in 2.5 mi ESE 16.1 mph 27.6 mph 0.01 in   Overcast
1:42 PM 63.0 °F 60.1 °F 90% 29.89 in 3.0 mi ESE 13.8 mph 27.6 mph 0.01 in   Overcast
1:53 PM 63.0 °F 61.0 °F 93% 29.88 in 3.0 mi ESE 17.3 mph 27.6 mph 0.01 in Rain Light Rain
2:53 PM 64.0 °F 62.1 °F 93% 29.85 in 10.0 mi ESE 17.3 mph 29.9 mph 0.00 in Rain Light Rain
3:53 PM 64.9 °F 62.1 °F 90% 29.82 in 10.0 mi ESE 16.1 mph 26.5 mph 0.01 in Rain Light Rain
4:53 PM 64.9 °F 62.1 °F 90% 29.77 in 7.0 mi ESE 17.3 mph 27.6 mph 0.00 in   Overcast
5:07 PM 64.9 °F 62.1 °F 90% 29.80 in 9.0 mi SE 16.1 mph 26.5 mph N/A Thunderstorm Overcast
5:48 PM 64.4 °F 62.6 °F 94% 29.81 in 5.0 mi SE 10.4 mph 20.7 mph 0.03 in Rain Light Rain
5:53 PM 66.0 °F 63.0 °F 90% 29.81 in 2.5 mi SE 10.4 mph - 0.07 in Rain Rain
6:35 PM 66.0 °F 64.0 °F 93% 29.81 in 3.0 mi ESE 4.6 mph - 0.08 in Rain Light Rain
6:53 PM 66.0 °F 64.0 °F 93% 29.81 in 3.0 mi ESE 4.6 mph - 0.08 in   Overcast
7:53 PM 66.0 °F 64.0 °F 93% 29.81 in 10.0 mi East 3.5 mph - N/A   Overcast
8:24 PM 66.0 °F 63.0 °F 90% 29.81 in 10.0 mi East 6.9 mph - N/A   Mostly Cloudy
8:35 PM 64.9 °F 63.0 °F 93% 29.81 in 9.0 mi East 6.9 mph - N/A   Scattered Clouds
8:53 PM 64.9 °F 63.0 °F 93% 29.82 in 8.0 mi ESE 5.8 mph - N/A   Partly Cloudy
9:53 PM 66.0 °F 64.0 °F 93% 29.83 in 7.0 mi SSE 8.1 mph - N/A   Mostly Cloudy
10:53 PM 66.0 °F 64.0 °F 93% 29.83 in 6.0 mi South 5.8 mph - N/A   Mostly Cloudy
11:53 PM 64.0 °F 61.0 °F 90% 29.82 in 10.0 mi SSW 6.9 mph - N/A   Partly Cloudy